Location: Eldred Sherwood Park Lake Dam
(42.9416°N, 93.5655°W)
Time: 08:34:08
(UTC+00:00)

Transit 4A - Visible Passes

Search period start: 11 December 2025 00:00
Search period end: 21 December 2025 00:00
Orbit: 869 x 972 km, 66.8° (Epoch: 10 December)

Date Brightness Start Highest point End Pass type
(mag) Time Alt. Az. Time Alt. Az. Time Alt. Az.
11 Dec 8.8 01:25:15 10° SSW 01:28:35 35° S 01:28:35 35° S visible
11 Dec 8.2 10:33:47 60° SE 10:33:47 60° SE 10:38:46 10° SSE visible
11 Dec 9.3 12:17:19 16° W 12:18:12 17° WSW 12:21:57 10° SW visible
11 Dec 9.4 23:51:29 10° SE 23:54:16 14° ESE 23:54:31 14° E visible
12 Dec 8.4 01:33:53 10° SSW 01:38:03 49° SSW 01:38:03 49° SSW visible
12 Dec 8.5 10:43:15 45° S 10:43:15 45° S 10:47:29 10° SSE visible
12 Dec 9.7 12:26:47 10° WSW 12:26:47 10° WSW 12:27:45 10° WSW visible
12 Dec 9.0 23:58:30 10° SSE 00:02:44 21° ESE 00:03:55 20° E visible
13 Dec 8.4 01:42:45 10° SW 01:47:27 53° W 01:47:27 53° W visible
13 Dec 9.1 10:52:47 30° S 10:52:47 30° S 10:55:58 10° S visible
14 Dec 8.5 00:06:14 10° S 00:11:16 32° ESE 00:13:14 25° ENE visible
14 Dec 8.8 01:51:52 10° WSW 01:56:46 42° WNW 01:56:46 42° WNW visible
14 Dec 9.6 11:02:20 18° SSW 11:02:20 18° SSW 11:04:08 10° S visible
15 Dec 8.0 00:14:21 10° S 00:19:52 47° ESE 00:22:29 29° ENE visible
15 Dec 9.2 02:01:13 10° WSW 02:06:00 31° NW 02:06:00 31° NW visible
16 Dec 7.7 00:22:47 10° SSW 00:28:33 70° ESE 00:31:40 28° NE visible
16 Dec 9.6 02:10:48 10° W 02:15:11 24° NW 02:15:11 24° NW visible
17 Dec 7.8 00:31:29 10° SSW 00:37:17 81° WNW 00:40:46 26° NNE visible
17 Dec 10.0 02:20:40 10° W 02:24:16 18° NW 02:24:16 18° NW visible
18 Dec 8.3 00:40:25 10° SW 00:46:06 57° NW 00:49:47 22° NNE visible
18 Dec 10.3 02:30:51 10° WNW 02:33:17 14° NW 02:33:17 14° NW visible
18 Dec 8.5 23:03:37 10° S 23:08:48 35° ESE 23:14:01 10° NE visible
19 Dec 8.8 00:49:34 10° WSW 00:55:00 40° NW 00:58:45 19° N visible
19 Dec 10.5 02:41:45 10° NW 02:42:15 10° NW 02:42:15 10° NW visible
19 Dec 8.0 23:11:49 10° S 23:17:25 52° ESE 23:23:04 10° NE visible
20 Dec 9.3 00:58:58 10° WSW 01:03:59 29° NW 01:07:39 16° N visible
20 Dec 7.8 23:20:19 10° SSW 23:26:06 77° ESE 23:31:58 10° NNE visible
